Location: Maccacari
(45.1333°N, 11.1333°E)
Time: 00:07:52
(UTC+00:00)

A-11 Canister half - Pass Details

Date: 27 January 2021
Orbit: 1525 x 1684 km, 47.3° (Epoch: 07 March)

Event Time Altitude Azimuth Distance (km) Brightness Sun altitude
Rises 17:31:33 0° 287° (WNW) 4,716 12.7 -13.4°
Reaches altitude 10° 17:34:34 10° 287° (WNW) 3,748 12.0 -13.9°
Maximum altitude 17:44:07 85° 201° (SSW) 1,604 9.1 -15.6°
Enters shadow 17:52:50 15° 114° (ESE) 3,504 10.4 -17.1°
Drops below altitude 10° 17:54:00 10° 114° (ESE) 3,868 - -17.3°
Sets 17:57:10 0° 114° (ESE) 4,872 - -17.8°
